Vertical_Velocity
-5 2 7 6 7 7 9 11 7 4 2 4 3 -1 -0 -3 3 14 6 2 20 10 5 -11 5 -10 -10 3 -1 -9 11 -3 4 14 8 -4 2 -10 -1 -6 -8 0 -7 -9 15 16 -9 -0 12 -9 -10 2 5 -0
0 -1 -1 3 6 8 2 2 5 -1 3 1 3 3 -1 7 0 9 4 -1 6 3 -13 5 4 -7 -5 -3 4 22 -11 2 11 19 -4 10 -9 2 -10 -23 24 11 -38 -15 -10 -23 -10 -1 6 9 4 12 4 -2
-1 3 2 -1 4 2 5 0 4 2 4 2 1 -0 3 1 0 14 9 3 4 26 28 1 2 9 -6 -0 14 9 24 35 26 18 32 22 3 14 6 13 15 8 17 2 36 -23 -4 4 1 -6 -1 -1 8 10
-0 5 6 -0 -2 -1 -3 4 4 4 5 0 -4 -6 -1 0 6 2 -1 1 -0 -4 -2 -8 -1 4 5 4 3 -8 -16 -3 0 10 13 -2 9 3 -20 -2 3 0 1 10 14 6 9 3 9 6 11 8 -0 16
-2 -1 0 2 1 -2 -1 0 -2 1 3 1 1 -1 -4 -1 -2 1 3 3 1 10 -0 -7 -3 5 1 3 3 6 -4 1 4 1 10 11 6 11 2 17 5 13 -8 15 -42 14 -3 -7 -2 6 1 -6 -7 -2
-0 -2 -1 -2 -0 0 -0 -1 -1 -0 -4 -2 -1 1 1 -0 2 1 0 0 2 2 5 -11 -7 -4 2 3 6 -0 -2 0 4 -2 -8 -6 -11 17 2 -8 0 -15 -5 -9 -6 8 6 -0 -3 -0 -0 -9 -3 2
-1 -3 -2 -1 1 6 7 7 6 3 1 -4 -2 -1 1 6 2 -1 -2 -1 1 0 2 -7 -11 -14 -4 -3 -0 -2 3 0 3 3 -13 -6 -10 38 -4 -11 -10 2 10 18 12 9 5 11 10 4 -8 -9 -16 -4
1 1 1 3 1 5 5 5 6 4 -0 2 4 4 2 8 5 2 0 3 3 3 1 14 3 1 -0 2 3 -2 -0 5 -1 -1 -3 -3 6 11 10 -7 -8 -8 -1 2 -7 1 7 -0 -6 -3 -4 -0 3 -1
-1 -2 -2 -1 -1 -2 -3 -2 -1 -0 0 1 4 3 -4 0 -1 -0 -1 -1 2 4 6 -1 -1 0 -6 -5 3 4 8 1 6 -9 -4 13 -5 3 -9 -4 -1 -7 0 7 11 9 6 -3 3 3 1 4 2 -6
-1 -2 -4 0 0 -0 -1 -2 -3 -3 -2 -1 0 1 0 1 4 5 1 -1 2 7 9 4 1 3 3 2 -3 2 -6 -2 -6 -10 9 5 5 -6 -4 -3 5 4 -6 -2 -3 10 3 2 -2 2 -0 0 3 6
-0 0 -2 -2 -1 -2 -2 -3 -2 -3 -2 -1 -0 -1 -0 0 1 4 4 4 4 6 6 4 2 -1 2 0 -1 2 3 2 0 -3 13 -0 2 0 0 1 1 1 2 2 -2 -2 -0 -2 -5 1 -3 -2 5 6
-1 -2 -2 0 -2 -2 -2 -1 -1 -3 -4 -4 -3 -1 1 4 1 4 2 1 0 -0 -7 -5 -4 -6 -2 -0 0 4 1 4 0 4 6 3 -0 0 0 0 -0 -2 2 1 1 0 1 -1 -4 -1 6 10 -1 -1
-3 -2 -2 -1 0 -1 -0 -1 -1 2 1 -2 -3 -1 -1 -2 -3 -6 -3 -2 -4 -2 -3 -4 -1 -4 -4 1 3 2 3 5 4 5 3 2 2 1 1 1 -0 1 0 1 2 0 -1 1 3 7 0 -3 -2 -1
-3 -2 -2 -2 -2 -1 -1 -2 -1 -2 1 0 -2 -4 -3 -3 -3 0 1 -3 0 -4 -5 -3 0 -1 2 2 4 4 8 3 4 4 3 2 1 1 1 0 0 1 2 2 -0 1 1 1 -1 -0 4 1 3 -4
-2 -2 -1 0 -1 -3 -2 -0 2 1 2 -2 -1 -5 -5 -1 -0 -0 2 0 -1 1 0 1 -0 2 5 3 8 4 5 3 2 1 0 -1 -1 -2 1 2 0 1 1 1 1 1 1 2 3 4 1 0 -0 -2
-3 5 -3 -3 -0 -1 -4 -4 -2 6 -10 -8 -5 -4 -1 0 3 3 -0 -4 -1 -0 -1 -2 -0 3 4 2 2 1 1 -0 -0 -3 -1 -2 -1 -2 -1 0 1 1 1 2 1 1 2 1 1 1 -1 -1 -1 -0
-7 -14 -6 -8 -7 -6 -2 13 -5 -25 -15 -8 -6 -6 -6 -2 -4 -5 -6 -6 -7 -4 -1 0 1 -0 -0 1 0 -0 -0 -3 -6 -1 -0 -2 -5 -3 -2 -1 -2 -1 1 0 2 1 1 0 1 -0 1 -2 -0 -0
-3 -11 -10 -5 3 10 -3 -17 -35 -13 -12 -9 -4 -2 -2 -2 -2 -2 -2 -6 -7 -3 -3 -1 -0 -1 -4 -2 -5 -1 -1 0 2 -1 1 1 -2 -2 -3 -4 -1 -2 -0 0 0 1 1 0 1 2 -2 -1 2 2
3 3 -2 -4 -1 -0 -16 -4 -13 -9 -2 -7 -6 -6 -3 -2 -2 -2 -2 -3 -2 -3 -5 -3 -2 -3 -1 -0 -5 2 1 -1 -7 1 1 2 -2 -3 0 -1 -2 -2 -0 1 -0 0 1 0 2 1 1 1 4 0
3 5 4 9 6 2 -9 -5 -6 -7 -6 -5 -4 -2 -4 -4 -1 -1 -0 -1 2 -3 -5 -2 0 -1 -4 1 -2 -4 -2 -2 -4 -5 4 4 3 0 1 -2 -1 -2 0 0 1 1 1 1 1 -0 -1 -0 2 1
2 3 0 2 3 8 0 -1 -1 -0 -1 -1 -2 -4 -2 -0 -3 -2 2 2 -0 -2 -3 2 2 5 2 1 0 -0 2 -3 -1 -3 -7 -6 4 0 1 1 -1 -0 -1 1 0 1 -1 3 1 1 1 3 1 -0
2 0 -4 -1 -0 -2 -0 -0 4 4 1 2 -0 3 1 -2 -0 -1 -2 2 1 -5 -2 -2 -1 -2 2 2 4 1 -0 2 1 -1 -2 -4 -3 2 4 2 -1 1 1 0 -1 1 2 0 1 1 1 1 1 2
2 1 -2 -3 -1 -0 2 -2 -1 2 1 0 3 2 2 2 3 2 -3 -2 1 -1 -1 -0 2 1 -1 2 1 0 -3 0 3 3 0 1 2 1 -0 1 -1 -0 1 1 -0 0 0 0 1 1 1 0 1 1
4 -7 2 -1 -1 0 -1 -1 2 3 1 4 3 2 3 2 1 0 1 2 1 -2 0 2 2 1 10 10 4 5 0 1 2 7 2 -4 2 5 -0 0 2 1 -1 0 2 1 1 1 1 1 2 0 1 1
-1 -5 1 -5 5 -3 -2 -1 -1 2 3 2 1 0 1 -0 1 1 1 2 5 5 2 0 0 3 -5 -5 3 2 3 -3 -2 1 11 -1 -1 2 3 0 2 1 -2 1 -1 -0 0 1 1 1 2 1 1 2
-9 -5 1 2 -1 -6 0 -3 1 3 -1 -3 -3 -3 -5 -1 3 -0 5 3 -1 -0 -2 -4 -6 -8 4 4 -6 -2 -0 2 0 -1 6 2 0 -3 -1 2 7 3 -1 -0 -0 0 0 0 0 1 2 2 1 -2
-3 -0 6 6 1 4 -2 -2 -0 -2 -2 -1 -0 -2 -1 -1 1 7 7 2 0 -0 1 1 2 3 -1 -2 3 6 5 4 2 -1 -2 1 4 -1 -4 -1 2 8 3 -5 -1 1 2 1 1 1 1 2 0 1
2 4 -1 4 1 0 -1 -2 -2 1 2 4 3 -1 -4 3 1 4 1 1 3 6 8 5 2 6 3 3 0 0 5 4 6 3 4 4 -4 -3 -3 -3 -2 5 -0 4 0 1 1 1 1 1 1 1 1 2
1 2 2 2 -1 -1 -0 -0 3 4 3 2 2 1 4 7 2 2 3 1 1 3 2 0 4 4 7 9 2 -2 -2 -0 -1 -1 2 2 4 0 1 1 -0 1 3 -2 -2 1 0 1 0 -3 -3 -1 2 1
4 4 0 1 1 6 7 6 3 3 1 2 2 7 4 1 -1 -1 2 5 -1 -6 -2 -0 -2 -2 -7 -6 -2 2 -2 -4 -8 -6 -5 -4 0 -0 -1 -1 -1 -2 -4 -2 -1 1 -1 -2 5 3 1 1 1 1
2 -1 -5 3 3 5 4 4 3 1 -0 3 4 4 3 -5 -3 1 2 2 1 1 6 3 1 -2 -2 -3 -5 -2 2 -7 -4 2 12 11 10 8 0 -0 0 -3 -3 -1 0 1 0 0 1 0 0 1 1 -0
1 1 2 -2 1 2 3 4 2 1 1 2 4 4 1 2 -2 3 3 0 3 3 1 4 1 -3 -3 -2 1 5 3 5 8 10 -12 -4 25 9 1 -2 -3 -2 -1 0 2 2 2 1 1 0 1 1 1 1
-3 1 1 -4 -6 0 -2 0 -2 -2 0 1 -1 -2 -11 -7 -3 -2 -4 -3 -3 -5 -1 -0 -3 1 -2 -2 -1 -0 -1 1 -2 3 -6 5 17 6 2 1 1 0 1 2 2 1 -0 -0 -0 1 1 1 1 2
Height
2880 2880 2881 2883 2885 2889 2892 2895 2897 2899 2901 2904 2907 2911 2914 2918 2921 2923 2924 2928 2930 2929 2933 2937 2941 2944 2948 2950 2952 2954 2960 2955 2958 2958 2957 2956 2954 2953 2955 2955 2955 2955 2960 2958 2960 2958 2955 2955 2959 2960 2955 2959 2963 2966
2875 2875 2876 2878 2880 2882 2885 2888 2890 2893 2895 2897 2900 2903 2906 2909 2913 2916 2916 2919 2922 2922 2923 2928 2930 2934 2936 2940 2944 2942 2944 2947 2948 2944 2943 2945 2943 2941 2940 2940 2943 2943 2936 2942 2942 2936 2942 2946 2947 2950 2951 2950 2950 2953
2871 2871 2873 2875 2877 2878 2880 2882 2885 2887 2890 2892 2895 2897 2900 2902 2905 2908 2908 2912 2914 2913 2913 2916 2919 2923 2926 2929 2933 2932 2932 2936 2935 2935 2930 2930 2929 2928 2925 2925 2927 2929 2933 2927 2931 2928 2931 2935 2935 2936 2937 2937 2936 2937
2870 2869 2870 2872 2874 2876 2878 2879 2881 2883 2885 2887 2890 2892 2894 2897 2900 2900 2902 2905 2907 2907 2906 2908 2909 2912 2916 2918 2920 2919 2924 2925 2922 2921 2919 2919 2921 2921 2919 2920 2919 2921 2921 2918 2917 2919 2921 2920 2922 2923 2923 2923 2924 2925
2870 2869 2869 2870 2871 2874 2875 2877 2878 2880 2882 2884 2886 2888 2889 2891 2892 2894 2896 2898 2899 2904 2899 2900 2902 2904 2906 2908 2910 2909 2912 2913 2913 2911 2908 2908 2908 2911 2909 2910 2906 2910 2911 2910 2906 2913 2912 2911 2910 2908 2907 2909 2910 2910
2871 2870 2870 2870 2871 2872 2873 2874 2876 2878 2880 2881 2882 2884 2886 2886 2888 2890 2891 2893 2893 2894 2895 2895 2895 2896 2898 2900 2901 2902 2902 2902 2901 2899 2900 2898 2898 2901 2896 2894 2896 2898 2898 2896 2896 2898 2899 2898 2899 2897 2896 2896 2898 2899
2873 2872 2871 2870 2870 2870 2871 2873 2874 2876 2877 2879 2880 2882 2883 2883 2885 2887 2889 2889 2889 2891 2892 2890 2887 2886 2889 2892 2891 2892 2893 2892 2891 2890 2887 2890 2890 2891 2884 2883 2886 2885 2885 2883 2880 2882 2883 2882 2882 2883 2885 2885 2886 2888
2875 2874 2872 2871 2870 2870 2871 2872 2873 2874 2876 2877 2879 2879 2880 2881 2883 2884 2884 2885 2886 2887 2887 2884 2881 2881 2883 2884 2883 2885 2884 2882 2881 2880 2881 2881 2881 2878 2873 2873 2874 2875 2874 2873 2873 2873 2872 2870 2871 2871 2873 2876 2875 2876
2877 2875 2874 2873 2872 2872 2872 2872 2873 2873 2874 2875 2877 2877 2878 2879 2880 2881 2881 2881 2881 2884 2881 2878 2877 2877 2876 2876 2876 2876 2873 2871 2870 2872 2874 2874 2869 2867 2861 2865 2863 2863 2862 2860 2858 2858 2859 2859 2859 2861 2862 2866 2865 2864
2879 2877 2875 2874 2873 2872 2872 2872 2872 2873 2873 2873 2874 2875 2875 2876 2877 2878 2877 2876 2876 2875 2874 2873 2873 2872 2873 2871 2869 2871 2866 2866 2863 2865 2863 2858 2854 2852 2852 2854 2852 2849 2850 2850 2848 2848 2848 2850 2847 2852 2851 2853 2852 2850
2881 2879 2877 2876 2874 2873 2873 2872 2872 2872 2871 2871 2872 2872 2873 2874 2874 2874 2874 2873 2871 2870 2868 2867 2866 2864 2864 2864 2862 2862 2858 2857 2854 2853 2851 2845 2843 2842 2842 2841 2839 2839 2838 2837 2838 2838 2838 2837 2839 2840 2840 2840 2839 2837
2883 2881 2879 2878 2876 2875 2874 2873 2873 2873 2872 2872 2872 2872 2873 2873 2873 2873 2870 2871 2869 2869 2867 2865 2863 2861 2860 2858 2855 2853 2850 2848 2844 2842 2840 2835 2835 2833 2833 2831 2830 2829 2828 2828 2828 2828 2828 2827 2828 2829 2828 2827 2827 2829
2887 2885 2883 2880 2879 2878 2877 2874 2874 2874 2873 2873 2873 2873 2873 2873 2872 2872 2874 2873 2872 2869 2865 2860 2858 2855 2852 2851 2848 2847 2842 2839 2835 2833 2830 2830 2830 2828 2825 2824 2823 2823 2822 2822 2822 2821 2821 2822 2822 2822 2821 2821 2822 2823
2893 2890 2887 2884 2882 2880 2879 2877 2876 2875 2874 2873 2873 2873 2875 2876 2878 2877 2876 2872 2868 2863 2858 2855 2852 2849 2847 2846 2844 2839 2835 2832 2829 2828 2826 2826 2824 2822 2821 2819 2819 2818 2817 2816 2816 2816 2816 2816 2816 2816 2816 2816 2818 2819
2899 2894 2891 2888 2884 2882 2880 2878 2877 2876 2874 2874 2876 2876 2879 2880 2879 2877 2874 2870 2864 2857 2852 2848 2844 2843 2841 2840 2838 2835 2831 2827 2825 2824 2823 2821 2819 2818 2817 2815 2813 2812 2811 2810 2811 2810 2810 2810 2810 2811 2811 2811 2812 2813
2908 2904 2899 2894 2890 2886 2882 2879 2879 2878 2875 2878 2880 2881 2882 2881 2878 2875 2871 2866 2860 2854 2848 2844 2842 2840 2839 2837 2835 2831 2830 2826 2825 2822 2819 2816 2814 2812 2810 2809 2807 2806 2805 2804 2804 2804 2804 2804 2804 2805 2805 2805 2806 2807
2916 2910 2906 2901 2896 2892 2889 2888 2884 2879 2881 2884 2884 2883 2881 2879 2877 2873 2870 2864 2858 2853 2848 2844 2843 2840 2839 2836 2834 2831 2828 2825 2820 2817 2814 2810 2805 2803 2801 2800 2799 2798 2797 2796 2796 2795 2796 2796 2797 2797 2798 2798 2800 2801
2920 2917 2913 2909 2906 2902 2896 2890 2885 2887 2887 2886 2884 2882 2879 2877 2874 2871 2868 2864 2858 2853 2848 2846 2843 2842 2840 2836 2832 2829 2824 2819 2815 2810 2806 2802 2798 2795 2792 2789 2789 2787 2787 2787 2786 2786 2787 2788 2789 2790 2790 2792 2793 2795
2923 2918 2914 2910 2907 2903 2895 2892 2890 2889 2889 2887 2884 2881 2879 2876 2873 2870 2866 2862 2859 2854 2850 2846 2845 2842 2837 2833 2827 2822 2817 2811 2806 2803 2799 2795 2790 2786 2783 2781 2778 2777 2776 2776 2776 2776 2777 2778 2780 2780 2782 2784 2786 2787
2924 2920 2915 2911 2907 2904 2899 2896 2894 2891 2889 2888 2883 2880 2877 2875 2872 2868 2865 2862 2858 2853 2850 2846 2842 2837 2831 2827 2821 2815 2810 2804 2798 2793 2791 2787 2783 2778 2775 2772 2770 2768 2767 2766 2766 2766 2767 2769 2770 2771 2773 2775 2778 2780
2922 2919 2915 2912 2908 2905 2902 2897 2894 2892 2888 2885 2883 2880 2877 2873 2870 2866 2863 2859 2856 2850 2846 2842 2837 2833 2827 2821 2814 2808 2803 2797 2791 2785 2779 2776 2774 2769 2766 2764 2761 2760 2758 2757 2757 2758 2758 2760 2761 2763 2765 2768 2770 2772
2921 2918 2915 2912 2907 2904 2901 2897 2894 2891 2887 2884 2881 2878 2874 2870 2867 2864 2861 2856 2853 2849 2844 2838 2832 2826 2821 2814 2808 2801 2795 2789 2784 2778 2772 2767 2764 2761 2759 2755 2753 2752 2751 2750 2749 2750 2751 2751 2753 2755 2757 2759 2762 2764
2920 2917 2914 2911 2906 2903 2903 2897 2892 2889 2886 2882 2879 2875 2872 2868 2865 2861 2858 2855 2851 2846 2839 2833 2827 2821 2814 2807 2800 2793 2785 2780 2775 2769 2764 2759 2756 2752 2749 2747 2745 2744 2743 2743 2742 2743 2744 2744 2746 2748 2750 2752 2755 2758
2918 2916 2912 2910 2907 2905 2901 2896 2892 2888 2885 2882 2878 2875 2871 2867 2862 2859 2855 2851 2847 2840 2834 2827 2820 2812 2807 2799 2791 2784 2776 2770 2765 2760 2753 2748 2746 2744 2741 2739 2737 2736 2735 2736 2736 2737 2737 2738 2739 2741 2744 2746 2749 2751
2920 2918 2916 2912 2908 2905 2900 2895 2891 2888 2885 2881 2877 2875 2871 2866 2860 2856 2853 2848 2842 2835 2826 2819 2812 2803 2794 2786 2780 2772 2765 2757 2751 2747 2744 2737 2733 2732 2731 2729 2729 2728 2727 2729 2730 2730 2731 2733 2734 2736 2738 2741 2743 2746
2920 2920 2917 2912 2908 2904 2900 2895 2891 2887 2883 2880 2878 2875 2869 2864 2859 2857 2852 2845 2838 2829 2820 2810 2800 2792 2785 2775 2765 2757 2751 2743 2736 2731 2729 2723 2719 2716 2717 2719 2720 2719 2720 2721 2723 2725 2727 2728 2730 2732 2734 2736 2739 2741
2923 2920 2917 2912 2909 2905 2899 2895 2890 2886 2882 2880 2877 2872 2868 2865 2861 2857 2850 2843 2835 2826 2817 2806 2795 2784 2773 2763 2754 2744 2734 2727 2720 2713 2708 2706 2704 2702 2702 2706 2708 2711 2711 2712 2716 2720 2723 2725 2727 2728 2730 2733 2735 2738
2925 2921 2916 2913 2908 2903 2899 2893 2889 2886 2882 2879 2876 2873 2871 2868 2863 2854 2848 2840 2832 2823 2813 2803 2792 2780 2766 2754 2741 2730 2721 2713 2706 2700 2696 2692 2688 2688 2689 2692 2695 2700 2702 2706 2710 2714 2718 2721 2724 2726 2727 2730 2733 2736
2924 2920 2916 2911 2906 2902 2898 2894 2891 2887 2884 2880 2878 2875 2872 2866 2860 2852 2846 2838 2828 2819 2808 2796 2785 2772 2761 2748 2735 2724 2715 2707 2701 2697 2693 2690 2687 2684 2682 2684 2687 2691 2695 2699 2703 2708 2713 2717 2720 2722 2725 2728 2731 2734
2924 2919 2915 2910 2907 2904 2900 2896 2891 2887 2884 2881 2878 2875 2870 2865 2858 2851 2843 2834 2824 2813 2801 2789 2777 2765 2753 2743 2735 2725 2715 2708 2704 2700 2695 2692 2690 2686 2683 2682 2683 2686 2690 2694 2699 2704 2708 2713 2719 2723 2725 2728 2730 2733
2926 2921 2916 2912 2909 2905 2900 2895 2891 2888 2885 2882 2879 2876 2871 2864 2854 2847 2840 2831 2821 2811 2801 2789 2777 2765 2755 2746 2736 2727 2721 2713 2709 2706 2702 2697 2694 2690 2686 2684 2683 2685 2689 2694 2699 2703 2709 2714 2720 2723 2726 2728 2731 2734
2927 2923 2919 2914 2910 2906 2900 2895 2892 2890 2886 2883 2881 2877 2871 2860 2853 2846 2838 2828 2820 2811 2800 2789 2779 2769 2760 2752 2744 2736 2727 2721 2715 2711 2704 2698 2699 2692 2685 2684 2685 2689 2694 2698 2703 2708 2713 2718 2722 2725 2728 2731 2734 2737
2929 2924 2919 2914 2910 2905 2901 2897 2893 2891 2887 2884 2881 2877 2870 2860 2854 2847 2838 2830 2821 2811 2802 2793 2784 2777 2769 2761 2754 2746 2738 2732 2725 2718 2710 2708 2709 2702 2699 2697 2698 2700 2703 2707 2711 2716 2720 2724 2727 2730 2732 2735 2738 2741